PDT,Max TemperatureF,Mean TemperatureF,Min TemperatureF,Max Dew PointF,MeanDew PointF,Min DewpointF,Max Humidity, Mean Humidity, Min Humidity, Max Sea Level PressureIn, Mean Sea Level PressureIn, Min Sea Level PressureIn, Max VisibilityMiles, Mean VisibilityMiles, Min VisibilityMiles, Max Wind SpeedMPH, Mean Wind SpeedMPH, Max Gust SpeedMPH,PrecipitationIn, CloudCover, Events, WindDirDegrees
2013-8-1,66,61,55,54,52,52,86,75,63,30.17,30.10,30.02,10,10,10,15,9,21,0.00,5,,235
2013-8-2,64,60,55,54,52,51,93,83,72,30.07,30.03,29.99,10,9,3,14,8,18,0.00,7,,238
2013-8-3,67,61,54,54,53,52,93,80,67,30.07,30.03,29.98,10,9,4,14,6,18,0.00,7,,228
2013-8-4,64,59,53,54,52,51,93,80,67,30.09,30.06,30.02,10,9,4,13,5,17,0.00,7,,252
2013-8-5,64,59,54,54,53,52,93,80,67,30.10,30.06,30.01,10,8,2,15,6,20,0.00,7,,270
2013-8-6,67,61,55,54,53,52,93,78,63,30.13,30.08,30.04,10,10,9,14,6,20,0.00,6,,247
2013-8-7,68,63,57,57,55,53,93,78,63,30.17,30.12,30.08,10,10,4,14,5,17,0.02,7,,261
2013-8-8,67,60,53,57,54,52,93,78,63,30.10,30.05,29.99,10,8,1,18,7,24,0.01,7,,259
2013-8-9,69,63,56,56,54,52,93,78,63,30.07,30.02,29.99,10,10,10,14,5,17,0.00,6,,266
2013-8-10,66,62,57,57,56,55,93,83,73,30.11,30.07,30.02,10,8,2,14,6,18,0.02,7,,258
2013-8-11,64,60,56,56,55,54,100,89,78,30.09,30.05,30.00,10,6,0,13,6,16,0.02,8,Fog,256
2013-8-12,67,61,54,56,55,54,100,84,68,30.08,30.03,29.98,10,6,0,13,5,16,0.01,6,Fog,277
2013-8-13,69,62,54,56,54,53,100,82,63,30.05,30.02,29.99,10,7,1,14,5,17,0.00,2,,272
2013-8-14,71,63,55,59,55,52,93,75,57,30.05,30.01,29.96,10,8,1,16,7,22,0.00,5,,237
2013-8-15,75,66,56,63,59,54,90,79,68,30.02,29.99,29.94,10,10,10,14,4,18,0.00,2,,239
2013-8-16,70,63,55,59,57,55,100,83,66,30.05,30.00,29.96,10,6,0,13,4,17,0.00,4,Fog,272
2013-8-17,69,63,57,58,56,55,93,81,68,30.06,30.01,29.95,10,10,7,13,7,18,0.00,6,,236
2013-8-18,74,66,57,58,56,55,100,81,61,29.97,29.90,29.84,10,7,1,12,4,13,0.00,5,,275
2013-8-19,75,65,55,56,55,54,93,73,53,29.98,29.91,29.85,10,7,1,13,4,16,0.00,5,,20
2013-8-20,69,63,56,56,55,54,93,78,63,29.98,29.93,29.88,10,9,2,16,5,22,0.00,5,,221
2013-8-21,71,65,58,55,54,53,86,72,57,30.00,29.97,29.93,10,10,10,14,5,17,0.00,4,,268
2013-8-22,70,62,54,55,53,50,89,73,57,30.03,29.98,29.94,10,10,10,15,5,20,0.00,4,,279
2013-8-23,67,63,58,56,55,54,93,81,68,29.99,29.95,29.88,10,10,4,14,7,18,0.00,7,,255
2013-8-24,72,65,57,58,56,53,93,80,66,29.97,29.93,29.89,10,10,3,13,5,23,0.00,3,,238
2013-8-25,77,68,58,61,59,56,97,79,60,30.01,29.97,29.92,10,9,2,18,5,23,0.00,4,,232
2013-8-26,68,64,59,59,57,52,97,80,63,30.06,30.00,29.97,10,8,2,13,6,17,0.02,5,,281
2013-8-27,69,63,57,57,56,52,93,81,68,29.96,29.92,29.88,10,10,10,14,7,20,0.00,3,,235
2013-8-28,73,63,53,61,56,52,100,84,68,30.01,29.93,29.87,10,6,0,14,5,16,0.00,5,Fog,250
2013-8-29,71,64,57,60,58,55,100,85,70,30.10,30.04,29.98,10,6,0,13,4,26,0.00,3,Fog,266
2013-8-30,74,65,56,59,57,54,93,75,57,30.08,30.04,29.98,10,8,0,13,4,16,0.00,1,Fog,289
2013-8-31,71,64,56,57,56,54,93,75,57,30.04,30.00,29.94,10,10,4,14,5,43,0.00,2,,273